User: anonymous   Login
Location: Brabourne
(51.1333°N, 1.0000°E)
Time: 02:25:39
(UTC+00:00)
Language:

Cosmos 1242 Rocket - Orbit

View from above orbital plane
View from above orbital plane
View from above satellite
View from above satellite

Ground track
Ground track

The orbit data is extracted from the following two-line orbital elements,

1 12155U 81008B   21269.50266968  .00002812  00000-0  83604-4 0  9991
2 12155  81.1648   3.3395 0027920  31.4611 328.8289 15.33977887199875
Epoch (UTC): 26 September 2021 12:03:50
Eccentricity: 0.0027920
inclination: 81.1648°
perigee height: 445 km
apogee height: 483 km
right ascension of ascending node: 3.3395°
argument of perigee: 31.4611°
revolutions per day: 15.33977887
mean anomaly at epoch: 328.8289°
orbit number at epoch: 19987

The dashed part of the orbit path shows where the satellite is in the earth's shadow,  

DLR